Location: ?????????
(54.7630°N, 39.4991°E)
Time: 11:35:57
(UTC+00:00)

Aureole 3 Rocket - Pass Details

Date: 14 April 2026
Orbit: 398 x 1686 km, 82.5° (Epoch: 10 May)

Event Time Altitude Azimuth Distance (km) Brightness Sun altitude
Exits shadow 22:17:48 76° 271° (W) 691 3.1 -24.5°
Maximum altitude 22:17:52 76° 283° (WNW) 693 3.1 -24.5°
Drops below altitude 10° 22:23:23 10° 10° (N) 2,515 7.2 -24.3°
Sets 22:26:18 0° 12° (NNE) 3,683 8.4 -24.2°
